闪电 1-81星 (MOLNIYA 1-81)

导读 | 星芒AI

MOLNIYA 1-81 是一颗俄罗斯军用通信卫星,于1981年12月10日由质子-K火箭发射。它运行在高度椭圆轨道(Molniya轨道),用于在高纬度地区提供稳定的通信服务。该卫星属于Molniya系列,主要支持军事指挥与控制通信。由于其轨道特性,MOLNIYA 1-81 每天两次经过俄罗斯北部上空,确保长时间的通信覆盖。卫星已退役,目前仍在轨道上运行。

基本信息
目录编号:
21426
目录名称:
MOLNIYA 1-81
国际标识:
1991-043A
轨道中心:
EARTH
卫星名称:
闪电 1-81星
卫星全名:
闪电 1-81星 (MOLNIYA 1-81)
卫星状态:
在轨 (已飞行12599 天)
发射日期:
1991-06-18 UTC
国别 :
俄罗斯(独联体) (CIS)
星等 :
--
轨道信息
数据来源 国际轨道数据
星历时间: 2025-12-08T23:47:47+0800
轨道信息已过期7天
半长轴: 26558.565km
偏心率: 0.6736631
轨道倾角: 63.416°
近地点辐角 259.454°
升交点赤经 199.194°
平近点角 24.043°
近地点: 2288.904km
远地点: 38071.956km
周期: 717.904分钟
每日圈数: 2.005838
详细信息
平衡模式:
三轴稳定
覆盖范围:
全球
运营商:
俄罗斯国家航天集团
运营商所在国:
俄罗斯
制造商(研发单位):
普里克拉德诺伊·梅哈尼基设计局
制造商所在国:
俄罗斯联邦
使用方式:
暂无
卫星简介
闪电(Molniya (Satellite))系列卫星是苏联/俄罗斯于1965年至2004年间发射的军事和通信卫星。这些卫星使用高度偏心的椭圆轨道,称为Molniya轨道(即闪电轨道),在高纬度地区具有较长的停留时间。该卫星状态未知。
2D轨道图
3D轨道图
轨道高度分析图
轨道倾角分析图
轨道综合分析图
查看轨道综合分析图